sat.trackr.live / text

‹ back to catalog

STARLINK-35378

NORAD 65794 · 2025-218D

PAYLOAD ACTIVE UNKNOWN

§ Identity

Operator
Country
US
Launch date
2025-09-26
Launch site
AFWTR
Launch vehicle
Mass (kg)
RCS (m²)

Purposes: comms

External: N2YO · Heavens-Above · Gunter

§ Orbital elements

Epoch: 2026-09-20T14:32:53.129472Z

Period
93.91 min
Inclination
97.2852°
Eccentricity
0.0001155
Mean motion
15.33434116 rev/d
Perigee alt
464.8 km
Apogee alt
466.4 km
Semi-major
6,843.7 km
B*
3.0180e-4
RAAN
121.0306°
Arg perigee
92.7458°
Mean anomaly
267.3917°
Rev number
5,435

§ Raw data

STARLINK-353781 65794U 25218D   26263.60617048  .00009677  00000+0  30180-3 0  99932 65794  97.2852 121.0306 0001155  92.7458 267.3917 15.33434116 54359

JSON: /api/v1/satellites/65794 · /tle

For live sub-satellite position, see the globe view (requires WebGL).

§ Visibility from observer

Set your observer location to see the next 7 days of passes ≥ 10°. The values pass through the URL so the page stays shareable.

No JS? Fill the form by hand. The geolocation button needs JavaScript.